Location: Pinhey's Point
(45.4411°N, 75.9539°W)
Time: 15:18:34
(UTC-04:00)

Iridium 65 - Visible Passes

Search period start: 18 April 2015 00:00
Search period end: 28 April 2015 00:00
Orbit: 776 x 779 km, 86.4° (Epoch: 18 April)

Date Brightness Start Highest point End Pass type
(mag) Time Alt. Az. Time Alt. Az. Time Alt. Az.
18 Apr 6.8 00:58:39 37° NNW 00:58:39 37° NNW 01:01:58 10° N visible
18 Apr 7.9 22:44:36 10° ENE 22:44:36 10° ENE 22:44:45 10° ENE visible
19 Apr 6.6 00:25:03 43° N 00:25:03 43° N 00:28:30 10° N visible
19 Apr 7.9 02:05:31 13° WNW 02:05:31 13° WNW 02:07:09 10° NW visible
19 Apr 6.7 23:51:26 35° NE 23:51:26 35° NE 23:54:48 10° NNE visible
20 Apr 7.4 01:31:54 21° WNW 01:31:54 21° WNW 01:34:53 10° NNW visible
20 Apr 7.1 23:17:50 24° ENE 23:17:50 24° ENE 23:20:49 10° NNE visible
21 Apr 6.9 00:58:17 34° NW 00:58:17 34° NW 01:01:54 10° N visible
21 Apr 7.5 22:44:12 15° ENE 22:44:12 15° ENE 22:46:18 10° NE visible
22 Apr 6.3 00:24:40 49° NNW 00:24:40 49° NNW 00:28:35 10° N visible
22 Apr 6.1 23:51:02 50° NNE 23:51:02 50° NNE 23:55:01 10° N visible
23 Apr 7.7 01:31:29 16° WNW 01:31:29 16° WNW 01:34:22 10° NNW visible
23 Apr 6.5 23:17:23 35° ENE 23:17:23 35° ENE 23:21:13 10° NNE visible
24 Apr 7.1 00:57:50 27° WNW 00:57:50 27° WNW 01:01:42 10° NNW visible
24 Apr 7.1 22:43:44 21° ENE 22:43:44 21° ENE 22:47:04 10° NNE visible
25 Apr 6.3 00:24:11 46° WNW 00:24:11 46° WNW 00:28:34 10° N visible
25 Apr 7.6 22:10:05 12° ENE 22:10:05 12° ENE 22:12:04 10° NE visible
25 Apr 5.7 23:50:31 70° N 23:50:31 70° N 23:55:08 10° N visible
26 Apr 7.9 01:30:59 12° WNW 01:31:35 12° WNW 01:33:15 10° NW visible
26 Apr 5.9 23:16:51 52° ENE 23:16:51 52° ENE 23:21:29 10° NNE visible
27 Apr 7.4 00:57:19 20° WNW 00:57:33 20° WNW 01:01:20 10° NNW visible
27 Apr 6.5 22:43:10 30° E 22:43:10 30° E 22:47:33 10° NNE visible
